Location: Unspecified
(0.0000°N, 0.0000°E)
Time: 13:42:47
(UTC+00:00)

LightSail 2 - Pass Details

Date: 12 September 2019
Orbit: 699 x 732 km, 24.0° (Epoch: 17 September)

Event Time Altitude Azimuth Distance (km) Brightness Sun altitude
Exits shadow 04:27:36 37° 208° (SSW) 1,075 5.8 -22.2°
Maximum altitude 04:29:13 53° 155° (SSE) 859 5.6 -21.8°
Drops below altitude 10° 04:34:12 10° 78° (ENE) 2,164 8.8 -20.5°
Sets 04:36:41 0° 73° (ENE) 3,087 9.9 -19.9°
